Flag for U.S.A. Weather past 2 weeks in Mountain View, California, U.S.A.

Now
63 °F

Passing clouds.


Feels Like: 63 °F
Forecast: 62 / 77 °F
Wind: No wind

Location: Moffett Field

Current Time: Aug 30, 2015 at 7:40:44 AM

Latest Report: Aug 30, 2015 at 6:56 AM


Visibility: 10 mi

Pressure: 30.05 "Hg

Humidity: 75%

Dew point: 55 °F

Location of Mountain ViewLocation

Historic Weather in Mountain View — Graph

°F

Mountain View temperature yesterday

Maximum temperature yesterday: 79 °F (at 1:56 PM)
Minimum temperature yesterday: 65 °F (at 10:56 PM)
Average temperature yesterday: 71 °F

Past Weeks' High & Low Weather Summary

 TemperatureHumidityPressure
High95 °F (Aug 15, 3:56 PM)90% (Aug 26, 1:56 AM)30.07 "Hg (Aug 26, 1:56 AM)
Low58 °F (Aug 15, 5:56 AM)22% (Aug 16, 2:56 PM)29.80 "Hg (Aug 16, 4:56 PM)
Average70 °F67%29.95 "Hg
* Reported Aug 15 5:56 AM — Aug 30 5:56 AM, Mountain View, Weather by CustomWeather, © 2015

Note: Actual official high and low records may vary slightly from our data, if they occured in-between our weather recording intervals... More about our weather records

Advertising

Mountain View weather history for previous 24 hours

 ConditionsComfort  
Time TempWeatherWind HumidityBarometerVisibility
5:56 AM
Sun, Aug 30
63 °FOvercast.No wind75%30.03 "Hg10 mi
4:56 AM62 °FPassing clouds.No wind78%30.03 "Hg10 mi
3:56 AM62 °FPassing clouds.No wind73%30.03 "Hg10 mi
2:56 AM63 °FPassing clouds.No wind70%30.02 "Hg10 mi
1:56 AM64 °FOvercast.No wind70%30.03 "Hg10 mi
12:56 AM65 °FPassing clouds.No wind78%30.03 "Hg10 mi
11:56 PM
Sat, Aug 29
65 °FPassing clouds.3 mph78%30.02 "Hg10 mi
10:56 PM65 °FClear.5 mph78%30.03 "Hg10 mi
9:56 PM66 °FClear.7 mph73%30.03 "Hg10 mi
8:56 PM68 °FClear.8 mph63%30.01 "Hg10 mi
7:56 PM71 °FSunny.6 mph51%29.99 "Hg10 mi
6:56 PM73 °FSunny.10 mph55%29.99 "Hg10 mi
5:56 PM77 °FSunny.17 mph54%29.98 "Hg10 mi
4:56 PM76 °FSunny.20 mph60%29.98 "Hg10 mi
3:56 PM78 °FSunny.18 mph60%29.99 "Hg10 mi
2:56 PM78 °FSunny.20 mph60%29.99 "Hg10 mi
1:56 PM79 °FSunny.12 mph60%30.00 "Hg10 mi
12:56 PM75 °FPartly sunny.16 mph71%30.01 "Hg10 mi
11:56 AM75 °FOvercast.6 mph71%30.01 "Hg10 mi
10:56 AM74 °FMostly cloudy.3 mph71%30.01 "Hg10 mi
9:56 AM73 °FOvercast.No wind74%30.00 "Hg10 mi
8:56 AM71 °FOvercast.5 mph76%30.00 "Hg10 mi
7:56 AM70 °FOvercast.3 mph79%29.98 "Hg10 mi
Weather by CustomWeather, © 2015

See weather overviewHow to use our weather pages